TimeAST,TemperatureF,Dew PointF,Humidity,Sea Level PressureIn,VisibilityMPH,Wind Direction,Wind SpeedMPH,Gust SpeedMPH,PrecipitationIn,Events,Conditions,WindDirDegrees,DateUTC
12:53 AM,75.0,64.0,69,30.01,10.0,ENE,6.9,-,N/A,,Scattered Clouds,70,2013-02-05 04:53:00
1:53 AM,75.9,63.0,64,30.00,10.0,East,9.2,-,N/A,,Mostly Cloudy,80,2013-02-05 05:53:00
2:53 AM,75.9,60.1,58,29.99,10.0,ENE,11.5,19.6,N/A,,Partly Cloudy,70,2013-02-05 06:53:00
3:53 AM,75.0,61.0,62,29.98,10.0,East,8.1,-,N/A,,Clear,80,2013-02-05 07:53:00
4:53 AM,75.9,62.1,62,29.98,10.0,East,8.1,-,N/A,,Partly Cloudy,90,2013-02-05 08:53:00
5:53 AM,75.0,62.1,64,30.00,10.0,East,8.1,-,N/A,,Scattered Clouds,90,2013-02-05 09:53:00
6:53 AM,73.9,61.0,64,30.02,10.0,East,4.6,-,N/A,,Clear,100,2013-02-05 10:53:00
7:53 AM,77.0,62.1,60,30.04,10.0,East,6.9,-,N/A,,Clear,100,2013-02-05 11:53:00
8:53 AM,79.0,63.0,58,30.06,10.0,ENE,9.2,-,N/A,,Mostly Cloudy,70,2013-02-05 12:53:00
9:53 AM,80.1,63.0,56,30.08,10.0,ENE,6.9,-,N/A,,Mostly Cloudy,70,2013-02-05 13:53:00
10:53 AM,77.0,66.0,69,30.08,10.0,East,8.1,-,0.01,,Overcast,90,2013-02-05 14:53:00
11:53 AM,82.0,64.9,56,30.06,10.0,East,6.9,-,N/A,,Scattered Clouds,80,2013-02-05 15:53:00
12:53 PM,81.0,66.0,60,30.04,10.0,ENE,11.5,-,N/A,,Mostly Cloudy,70,2013-02-05 16:53:00
1:53 PM,79.0,69.1,72,30.02,10.0,ENE,6.9,-,0.02,,Overcast,70,2013-02-05 17:53:00
2:53 PM,79.0,64.9,62,30.00,10.0,East,6.9,-,N/A,,Overcast,80,2013-02-05 18:53:00
3:53 PM,80.1,66.9,64,29.99,10.0,NE,10.4,-,N/A,,Mostly Cloudy,40,2013-02-05 19:53:00
4:53 PM,80.1,66.9,64,30.00,10.0,NE,6.9,-,N/A,,Clear,50,2013-02-05 20:53:00
5:53 PM,77.0,68.0,74,30.01,10.0,NE,6.9,-,N/A,,Mostly Cloudy,40,2013-02-05 21:53:00
6:53 PM,73.9,71.1,91,30.01,3.0,ESE,12.7,21.9,0.00,Rain,Rain,110,2013-02-05 22:53:00
7:14 PM,75.2,71.6,89,30.02,4.0,ESE,5.8,-,0.03,Rain,Light Rain,120,2013-02-05 23:14:00
7:43 PM,-9999,-9999,N/A,30.02,10.0,East,8.1,-,0.08,,Overcast,100,2013-02-05 23:43:00
7:53 PM,-9999,-9999,N/A,30.04,10.0,East,8.1,-,0.10,,Overcast,100,2013-02-05 23:53:00
8:53 PM,-9999,-9999,N/A,30.04,10.0,NE,5.8,-,N/A,,Overcast,40,2013-02-06 00:53:00
9:53 PM,-9999,-9999,N/A,30.04,10.0,Calm,Calm,-,N/A,,Mostly Cloudy,0,2013-02-06 01:53:00
10:53 PM,-9999,-9999,N/A,30.04,10.0,ENE,3.5,-,0.01,,Overcast,70,2013-02-06 02:53:00
11:53 PM,75.0,69.1,82,30.02,10.0,East,5.8,-,N/A,,Overcast,80,2013-02-06 03:53:00